AO-91
1 43017U 17073E 18039.78390788 .00000974 00000-0 82601-4 0 9995
2 43017 097.6994 336.3465 0259794 329.8877 028.7610 14.77889505012147
EcAMSat
1 43019U 98067NG 18039.92866091 .00004418 00000-0 70053-4 0 9995
2 43019 051.6402 297.4752 0005670 061.6956 298.4607 15.55653961098575
PICSAT
1 43131U 18004W 18039.74806898 .00001732 00000-0 78281-4 0 9999
2 43131 097.5517 101.9948 0010047 178.6726 181.4538 15.22287214004175
AO-92
1 43137U 18004AC 18039.81120321 .00000965 00000-0 44874-4 0 9991
2 43137 097.5517 102.0645 0009562 180.2401 179.8832 15.22411606004189
TianYi 2
1 43155U 18008A 18039.84207074 .00000201 00000-0 16165-4 0 9994
2 43155 97.5371 116.4376 0016857 223.0340 239.5340 15.10325824 3113
2018-008C
1 43157U 18008C 18039.91689795 -.00000102 00000-0 -24029-5 0 9999
2 43157 97.5424 116.4998 0014725 211.9561 235.4080 15.09493185 3128
2018-008D
1 43158U 18008D 18039.92217928 .00000003 00000-0 41629-5 0 9999
2 43158 97.5356 116.4913 0012940 213.9660 262.2165 15.09498025 3107
/EX
1
0
Per detailed doppler measurements Nico Janssen, PA0DLO reports:
TianYi 2 (TY 2) is object 43155 (downlink 435.350 MHz)and TianYi 6
(TY 6) is either object 43157 or 43158. It is still not possible
to identify TY 6 (downlink 436.100 MHz, as the separation between
43157 and 43158 is still less than 1 second.
The student satellite HuaiAn 1 (HA 1) now has the post-launch name
Zhou Enlai. It is not possible to identify it, because it does
not transmit any signals. This appears to be another example of a
DOA (Dead On Arrival) student satellite.
Also on the 1/12/2018 PSLV-C40 launch, that also carried AO 92 and
PICSAT, there were six other satellites that should have a downlink
on amateur frequencies. But they all appear to be DOA satellites.
The only other satellite that does have a 70 cm downlink (unexpected)
is (probably) INS 1C, object 43116. INS 1C downlink is 435.085 MHz
with 1200 bps FSK AX.25 telemetry.
Thanks Nico!
NOTE: In this week's TLE distribution object 43157 is named
2018-008C and object 43158 is named 2018-008D. These are temporary
names and when TianYi 6 is identified, one TLE will go away and the
winner will be named TianYi 6. (There are currently multiple objects
named object C and object D in Space-Track at this time???)
1
0
SB KEPS @ AMSAT $ORB18032.N
2Line Orbital Elements 18032.AMSAT
HR AMSAT ORBITAL ELEMENTS FOR AMATEUR SATELLITES IN NASA FORMAT
FROM WA5QGD FORT WORTH,TX February 1, 2018
BID: ORB18032.N
DECODE 2-LINE ELSETS WITH THE FOLLOWING KEY:
1 AAAAAU 00 0 0 BBBBB.BBBBBBBB .CCCCCCCC 00000-0 00000-0 0 DDDZ
2 AAAAA EEE.EEEE FFF.FFFF GGGGGGG HHH.HHHH III.IIII JJ.JJJJJJJJKKKKKZ
KEY: A-CATALOGNUM B-EPOCHTIME C-DECAY D-ELSETNUM E-INCLINATION F-RAAN
G-ECCENTRICITY H-ARGPERIGEE I-MNANOM J-MNMOTION K-ORBITNUM Z-CHECKSUM
TO ALL RADIO AMATEURS BT
AO-07
1 07530U 74089B 18032.91039634 -.00000053 00000-0 -51333-4 0 9991
2 07530 101.6680 2.3645 0011785 236.8809 190.1704 12.53630895977644
UO-11
1 14781U 84021B 18032.58281693 .00000047 00000-0 11989-4 0 9995
2 14781 097.6679 074.4478 0009006 158.9430 201.2156 14.82977417803341
LO-19
1 20442U 90005G 18032.39535109 -.00000006 00000-0 13968-4 0 9993
2 20442 098.5986 331.8144 0011538 185.7083 174.3971 14.32885435464383
HUBBLE
1 20580U 90037B 18032.14987734 .00000437 00000-0 15806-4 0 9999
2 20580 28.4696 294.3482 0002902 116.1199 35.1860 15.08972276324903
MET-2/21
1 22782U 93055A 18032.59234885 .00000010 00000-0 -48009-5 0 9999
2 22782 082.5481 201.5271 0023035 145.1286 284.0102 13.83806369233157
AO-27
1 22825U 93061C 18032.48200041 -.00000014 00000-0 12251-4 0 9992
2 22825 098.8456 006.2644 0008940 028.9119 331.2556 14.30020707269909
IO-26
1 22826U 93061D 18032.46025090 -.00000013 00000-0 12666-4 0 9999
2 22826 098.8397 006.2970 0009297 018.9746 341.1781 14.30351472270107
FO-29
1 24278U 96046B 18032.83767896 -.00000023 00000-0 92644-5 0 9992
2 24278 98.5298 250.1428 0351369 102.0390 262.0350 13.53081181 59935
NOAA-15
1 25338U 98030A 18032.61629369 .00000013 00000-0 24168-4 0 9996
2 25338 098.7764 048.9085 0009543 259.9872 100.0231 14.25837362025444
GO-32
1 25397U 98043D 18032.80870032 -.00000022 00000-0 94928-5 0 9994
2 25397 98.6368 335.5872 0002307 69.2592 290.8834 14.23638913 16467
ISS
1 25544U 98067A 18032.35680672 .00003091 00000-0 54092-4 0 9998
2 25544 051.6440 335.8519 0003109 060.6999 082.4185 15.54035772097393
NO-44
1 26931U 01043C 18032.57713313 -.00000037 00000-0 17587-4 0 9996
2 26931 067.0493 219.3230 0005460 279.9139 080.1346 14.30492588853087
SO-50
1 27607U 02058C 18032.65196564 -.00000037 00000-0 15357-4 0 9999
2 27607 64.5555 144.3032 0048853 1.5750 358.5496 14.75416219812963
CO-55
1 27844U 03031E 18032.58942891 .00000047 00000-0 40727-4 0 9997
2 27844 098.6888 043.2340 0010524 048.5370 311.6710 14.22091975756882
CO-57
1 27848U 03031J 18032.58152564 .00000026 00000-0 31895-4 0 9994
2 27848 098.6977 043.5769 0010559 057.7452 302.4747 14.21698964756769
RS-22
1 27939U 03042A 18032.83521837 .00000065 00000-0 20177-4 0 9992
2 27939 97.9680 175.6437 0012309 212.7530 275.5646 14.66653150766976
NOAA-18
1 28654U 05018A 18032.58563110 .00000020 00000-0 35967-4 0 9998
2 28654 099.1621 065.1665 0014959 145.6861 214.5279 14.12365406654549
CO-58
1 28895U 05043F 18032.42708030 .00000112 00000-0 30353-4 0 9994
2 28895 097.8880 189.5408 0017821 135.8421 224.4208 14.63503995653788
Falconsat-3
1 30776U 07006E 18032.46205142 .00002156 00000-0 65859-4 0 9995
2 30776 035.4367 050.3529 0003857 246.1465 113.8856 15.33842138603467
CO-65
1 32785U 08021C 18032.82462250 .00000183 00000-0 25490-4 0 9995
2 32785 97.5532 51.4270 0014400 123.9494 236.3094 14.88054625529048
AAUSAT2
1 32788U 08021F 18032.55415059 .00000632 00000-0 63950-4 0 9995
2 32788 097.5359 064.6188 0013407 084.7081 275.5669 14.94205324529824
DO-64
1 32789U 08021G 18032.69219976 .00001221 00000-0 88466-4 0 9995
2 32789 97.5314 90.8349 0013385 46.2101 314.0230 15.05718974531398
CO-66
1 32791U 08021J 18032.52852855 .00000322 00000-0 38390-4 0 9991
2 32791 097.5457 056.1756 0014912 108.5603 251.7237 14.90457457529224
RS-30
1 32953U 08025A 18032.58404841 .00000040 00000-0 21420-3 0 9991
2 32953 082.5021 097.0206 0020145 143.7547 216.4902 12.43081287439926
PRISM
1 33493U 09002B 18032.73714177 .00001117 00000-0 10484-3 0 9994
2 33493 98.1447 289.5352 0016925 47.5484 312.7163 14.96065013490096
